Home   Weather   Vennesla   Past weeks
Flag for Norway

Past Weather in Vennesla, Norway — Yesterday and Last 2 Weeks

Now
55 °F

Scattered clouds.


Feels Like: 54 °F
Forecast: 60 / 53 °F
Wind: 6 mph from Southwest

Location: Kristiansand / Kjevik

Current Time: Aug 21, 2019 at 9:20:48 am

Latest Report: Aug 21, 2019 at 8:20 am


Visibility: N/A

Pressure: 30.18 "Hg

Humidity: 82%

Dew Point: 50 °F

Location of VenneslaLocation

Past Weather in Vennesla — Graph

°F

Vennesla Temperature Yesterday

Maximum temperature yesterday: 64 °F (at 11:20 am)
Minimum temperature yesterday: 52 °F (at 5:20 am)
Average temperature yesterday: 59 °F

High & Low Weather Summary for the Past Weeks

 TemperatureHumidityPressure
High70 °F (Aug 6, 3:50 pm)100% (Aug 6, 7:50 am)30.15 "Hg (Aug 6, 7:50 am)
Low45 °F (Aug 15, 2:50 am)43% (Aug 13, 4:20 pm)29.42 "Hg (Aug 11, 7:50 am)
Average60 °F87%29.67 "Hg
* Reported Aug 6 7:20 am — Aug 21 7:50 am, Vennesla. Weather by CustomWeather, © 2019

Note: Actual official high and low records may vary slightly from our data, if they occured in-between our weather recording intervals... More about our weather records

Advertising

Vennesla Weather History for the Previous 24 Hours

Scroll right to see more
 ConditionsComfort  
Time TempWeatherWind HumidityBarometerVisibility
7:50 am
Wed, Aug 21
55 °FScattered clouds.3 mph77%30.15 "HgN/A
7:20 am54 °FScattered clouds.5 mph82%30.15 "HgN/A
6:50 am54 °FScattered clouds.3 mph82%30.15 "HgN/A
6:20 am52 °FScattered clouds.5 mph88%30.15 "HgN/A
5:50 am48 °FPassing clouds.1 mph94%30.15 "HgN/A
5:20 am52 °FPartly cloudy.2 mph88%30.12 "HgN/A
4:50 am48 °FPassing clouds.2 mph100%30.12 "HgN/A
4:20 am48 °FPassing clouds.2 mph94%30.12 "HgN/A
3:50 am48 °FCool.2 mph94%30.12 "HgN/A
3:20 am50 °FCool.2 mph94%30.12 "HgN/A
2:50 am52 °FPassing clouds.2 mph88%30.12 "HgN/A
2:20 am50 °FPassing clouds.No wind100%30.09 "HgN/A
1:50 am50 °FPassing clouds.3 mph100%30.09 "HgN/A
1:20 am50 °FPassing clouds.2 mph94%30.09 "HgN/A
12:50 am50 °FOvercast.No wind100%30.09 "HgN/A
12:20 am52 °FOvercast.No wind94%30.09 "HgN/A
11:50 pm
Tue, Aug 20
54 °FPassing clouds.2 mph88%30.07 "HgN/A
11:20 pm54 °FCool.2 mph88%30.07 "HgN/A
10:50 pm55 °FClear.9 mph88%30.07 "Hg10 mi
10:20 pm55 °FClear.9 mph82%30.07 "Hg10 mi
9:50 pm57 °FClear.7 mph77%30.07 "Hg10 mi
9:20 pm57 °FClear.7 mph77%30.04 "Hg10 mi
8:50 pm59 °FSunny.9 mph72%30.04 "Hg10 mi
8:20 pm61 °FPassing clouds.7 mph72%30.04 "HgN/A
7:50 pm61 °FPassing clouds.10 mph72%30.04 "HgN/A
7:20 pm63 °FPassing clouds.12 mph68%30.01 "HgN/A
6:50 pm63 °FPassing clouds.9 mph73%30.01 "HgN/A
6:20 pm63 °FScattered showers. Scattered clouds.8 mph77%30.01 "HgN/A
5:50 pm59 °FSprinkles. Scattered clouds.10 mph88%30.01 "HgN/A
5:20 pm64 °FScattered showers. Partly sunny.10 mph64%29.98 "HgN/A
4:50 pm63 °FScattered showers. Scattered clouds.10 mph68%29.98 "HgN/A
4:20 pm64 °FScattered clouds.13 mph68%29.98 "HgN/A
3:50 pm64 °FScattered showers. Scattered clouds.15 mph64%29.98 "HgN/A
3:20 pm64 °FPassing clouds.17 mph68%29.95 "HgN/A
2:50 pm63 °FScattered showers. Scattered clouds.20 mph73%29.95 "HgN/A
1:50 pm61 °FScattered showers. Scattered clouds.10 mph77%29.95 "HgN/A
1:20 pm63 °FScattered showers. Scattered clouds.20 mph73%29.95 "HgN/A
12:50 pm64 °FScattered clouds.16 mph68%29.95 "HgN/A
12:20 pm63 °FScattered clouds.16 mph73%29.92 "HgN/A
11:50 am63 °FScattered clouds.15 mph73%29.92 "HgN/A
11:20 am64 °FScattered showers. Scattered clouds.17 mph68%29.92 "HgN/A
10:50 am63 °FScattered clouds.8 mph77%29.92 "HgN/A
10:20 am59 °FScattered showers. Scattered clouds.3 mph88%29.92 "HgN/A
9:20 am61 °FScattered clouds.12 mph72%29.89 "HgN/A
Weather by CustomWeather, © 2019

See weather overview